Orange, MA

6:44 AM EST on December 07, 2019 (GMT -0500)
Orange Municipal

Weather History for KORE - October, 2019

Change the Weather History Date:

Wednesday, October 23, 2019

  Actual Average Record
Temperature  
Mean Temperature 50 °F -  
Max Temperature 64 °F 54 °F 75 °F (2007)
Min Temperature 37 °F 31 °F 21 °F (1997)
Degree Days  
Heating Degree Days 14    
Moisture  
Dew Point 46 °F    
Average Humidity 81    
Maximum Humidity 94    
Minimum Humidity 33    
Precipitation  
Precipitation 0.41 in - - ()
Sea Level Pressure  
Sea Level Pressure 29.88 in    
Wind  
Wind Speed 4 mph ()    
Max Wind Speed 15 mph    
Max Gust Speed 25 mph    
Visibility 6.3 miles    
Events Rain    
Averages and records for this station are not official NWS values.
T = Trace of Precipitation, MM = Missing Value Source: Averaged Metar Reports

Daily Weather History Graph

Daily Weather History Graph

Search for Another Location

Airport or City:

Astronomy

Oct. 23, 2019 Rise Set
Actual Time 7:11 AM EDT 5:54 PM EDT
Civil Twilight 6:42 AM EDT 6:23 PM EDT
Nautical Twilight 6:09 AM EDT 6:56 PM EDT
Astronomical Twilight 5:37 AM EDT 7:29 PM EDT
Moon 1:16 AM EDT (10/23) 3:52 PM EDT (10/23)
Length of Visible Light 11h 40m
Length of Day
10h 43m
Waning Crescent, 27% of the Moon is Illuminated
Oct 23
Waning Crescent
Oct 27
New
Nov 4
First Quarter
Nov 12
Full
Nov 19
Last Quarter

Hourly Weather History & Observations

Time (EDT) Temp. Dew Point Humidity Pressure Visibility Wind Dir Wind Speed Gust Speed Precip Events Conditions
12:52 AM 53.1 °F 51.1 °F 93% 29.86 in 2.0 mi NW 5.8 mph - 0.10 in Rain Heavy Rain
1:11 AM 53.1 °F 51.1 °F 93% 29.85 in 4.0 mi West 3.5 mph - 0.05 in Rain Rain
1:43 AM 54.0 °F 52.0 °F 93% 29.84 in 3.0 mi Calm Calm - 0.14 in Rain Heavy Rain
1:52 AM 54.0 °F 52.0 °F 93% 29.84 in 4.0 mi Calm Calm - 0.15 in Rain Light Rain
2:09 AM 54.0 °F 52.0 °F 93% 29.82 in 3.0 mi Calm Calm - 0.03 in Rain Rain
2:52 AM 54.0 °F 51.1 °F 90% 29.80 in 10.0 mi Calm Calm - 0.04 in   Overcast
3:41 AM 54.0 °F 52.0 °F 93% 29.77 in 4.0 mi Calm Calm - 0.02 in Rain Light Rain
3:52 AM 54.0 °F 52.0 °F 93% 29.78 in 2.5 mi Calm Calm - 0.02 in Rain Light Rain
4:07 AM 54.0 °F 52.0 °F 93% 29.78 in 4.0 mi WNW 12.7 mph - 0.01 in Rain Light Rain
4:18 AM 55.0 °F 53.1 °F 93% 29.79 in 2.0 mi NW 11.5 mph - 0.03 in Rain Rain
4:31 AM 55.0 °F 52.0 °F 89% 29.79 in 2.5 mi NW 15.0 mph - 0.05 in Rain Light Rain
4:39 AM 54.0 °F 51.1 °F 90% 29.79 in 3.0 mi NW 11.5 mph - 0.06 in Rain Light Rain
4:52 AM 54.0 °F 51.1 °F 90% 29.81 in 3.0 mi NNW 6.9 mph - 0.06 in Rain Light Rain
5:16 AM 54.0 °F 51.1 °F 90% 29.79 in 3.0 mi North 4.6 mph - 0.02 in Rain Light Rain
5:35 AM 54.0 °F 52.0 °F 93% 29.79 in 2.5 mi NNW 4.6 mph - 0.03 in Rain Light Rain
5:40 AM 54.0 °F 51.1 °F 90% 29.79 in 3.0 mi NW 4.6 mph - 0.03 in Rain Light Rain
5:48 AM 53.6 °F 51.8 °F 94% 29.80 in 4.0 mi Calm Calm - 0.03 in Rain Light Rain
5:52 AM 54.0 °F 52.0 °F 93% 29.80 in 5.0 mi NW 3.5 mph - 0.03 in   Overcast
6:24 AM 54.0 °F 52.0 °F 93% 29.80 in 7.0 mi NNW 6.9 mph - 0.01 in   Overcast
6:52 AM 54.0 °F 52.0 °F 93% 29.80 in 10.0 mi North 3.5 mph - 0.01 in   Overcast
7:52 AM 54.0 °F 51.1 °F 90% 29.79 in 10.0 mi NW 8.1 mph - N/A   Overcast
8:52 AM 55.9 °F 51.1 °F 84% 29.82 in 10.0 mi Calm Calm - N/A   Mostly Cloudy
9:52 AM 57.0 °F 51.1 °F 81% 29.83 in 10.0 mi NNW 4.6 mph - N/A   Mostly Cloudy
10:52 AM 60.1 °F 50.0 °F 69% 29.86 in 10.0 mi NW 8.1 mph - N/A   Partly Cloudy
11:52 AM 61.0 °F 46.0 °F 58% 29.86 in 10.0 mi NW 15.0 mph 21.9 mph N/A   Mostly Cloudy
12:52 PM 64.0 °F 42.1 °F 45% 29.86 in 10.0 mi WNW 15.0 mph 24.2 mph N/A   Mostly Cloudy
1:52 PM 63.0 °F 39.0 °F 41% 29.86 in 10.0 mi WNW 12.7 mph 18.4 mph N/A   Partly Cloudy
2:52 PM 63.0 °F 34.0 °F 34% 29.90 in 10.0 mi WNW 12.7 mph 25.3 mph N/A   Clear
3:52 PM 63.0 °F 33.1 °F 33% 29.91 in 10.0 mi West 12.7 mph 25.3 mph N/A   Clear
4:52 PM 62.1 °F 35.1 °F 37% 29.93 in 10.0 mi WNW 5.8 mph - N/A   Clear
5:52 PM 57.9 °F 36.0 °F 44% 29.96 in 10.0 mi WNW 5.8 mph - N/A   Clear
6:52 PM 48.9 °F 39.9 °F 71% 30.01 in 10.0 mi SW 3.5 mph - N/A   Clear
7:52 PM 46.0 °F 39.9 °F 79% 30.04 in 10.0 mi Calm Calm - N/A   Clear
8:52 PM 43.0 °F 39.0 °F 86% 30.07 in 10.0 mi Calm Calm - N/A   Clear
9:52 PM 42.1 °F 37.9 °F 85% 30.10 in 10.0 mi Calm Calm - N/A   Clear
10:52 PM 39.0 °F 36.0 °F 89% 30.12 in 10.0 mi Calm Calm - N/A   Clear
11:47 PM 37.4 °F 35.6 °F 93% 30.12 in 2.0 mi Calm Calm - N/A   Partly Cloudy
11:49 PM 37.4 °F 35.6 °F 93% 30.12 in 1.0 mi Calm Calm - N/A   Mist
11:52 PM 37.9 °F 35.1 °F 89% 30.13 in 0.8 mi Calm Calm - N/A   Mist